DW5129 Weather Reports


time (UTC)temp
C
wind
direction
speed
KPH
gust
KPH
rain 1hr
cm
rain 24hr
cm
rain mn
cm
humidity
%
barometer
mb
20260502195038 12 315 1.6 14.5 0.00 0.00 0.00 44 1014.9
20260502194538 12 308 1.6 6.4 0.00 0.00 0.00 44 1014.9
20260502194038 12 294 0.0 14.5 0.00 0.00 0.00 44 1015.0
20260502193538 12 273 3.2 19.3 0.00 0.00 0.00 43 1014.9
20260502193039 13 333 1.6 19.3 0.00 0.00 0.00 45 1015.0
20260502192537 14 262 0.0 19.3 0.00 0.00 0.00 44 1014.9
20260502192036 14 339 9.7 19.3 0.00 0.00 0.00 43 1015.0
20260502191539 14 299 0.0 6.4 0.00 0.00 0.00 49 1015.1
20260502191034 12 223 0.0 12.9 0.00 0.00 0.00 48 1015.1
20260502190534 12 333 1.6 12.9 0.00 0.00 0.00 46 1015.3
20260502190041 12 310 0.0 17.7 0.00 0.00 0.00 46 1015.4
20260502185532 12 328 6.4 17.7 0.00 0.00 0.00 46 1015.4
20260502185032 12 311 1.6 19.3 0.00 0.00 0.00 46 1015.4
20260502184532 12 306 8.0 19.3 0.00 0.00 0.00 44 1015.5
20260502184032 12 314 9.7 22.5 0.00 0.00 0.00 44 1015.4
20260502183532 12 355 4.8 20.9 0.00 0.00 0.00 45 1015.4
20260502183032 13 325 8.0 20.9 0.00 0.00 0.00 47 1015.5
20260502182535 12 311 8.0 17.7 0.00 0.00 0.00 47 1015.6
20260502182030 12 330 8.0 16.1 0.00 0.00 0.00 45 1015.6
20260502181536 12 350 4.8 16.1 0.00 0.00 0.00 47 1015.6
20260502181029 12 342 6.4 19.3 0.00 0.00 0.00 45 1015.7
20260502180529 12 305 1.6 19.3 0.00 0.00 0.00 47 1015.7
20260502164023 12 321 4.8 17.7 0.00 0.00 0.00 48 1016.1
20260502163526 12 260 1.6 22.5 0.00 0.00 0.00 45 1016.2
20260502163036 12 288 3.2 22.5 0.00 0.00 0.00 45 1016.3
20260502162523 12 308 8.0 24.1 0.00 0.00 0.00 46 1016.2
20260502162023 12 16 11.3 24.1 0.00 0.00 0.00 42 1016.3
20260502161524 13 328 8.0 22.5 0.00 0.00 0.00 46 1016.3
20260502161021 12 335 8.0 24.1 0.00 0.00 0.00 46 1016.4
20260502160523 13 336 11.3 24.1 0.00 0.00 0.00 48 1016.3
20260502152013 12 355 0.0 9.7 0.00 0.00 0.00 53 1016.5
20260502151525 12 9 0.0 14.5 0.00 0.00 0.00 54 1016.5
20260502151011 12 5 4.8 14.5 0.00 0.00 0.00 54 1016.5
20260502150510 12 340 1.6 9.7 0.00 0.00 0.00 56 1016.6
20260502130542 7 5 0.0 0.0 0.00 0.00 0.00 94 1016.8
20260502123533 5 355 0.0 0.0 0.00 0.00 0.00 96 1016.8
20260502123041 5 333 0.0 0.0 0.00 0.00 0.00 96 1016.7
20260502122535 5 333 0.0 0.0 0.00 0.00 0.00 96 1016.6
20260502122030 5 333 0.0 0.0 0.00 0.00 0.00 96 1016.5
20260502121529 5 333 0.0 0.0 0.00 0.00 0.00 96 1016.7
20260502121028 5 333 0.0 0.0 0.00 0.00 0.00 96 1016.8
20260502120531 5 333 0.0 0.0 0.00 0.00 0.00 96 1016.7
20260502115526 5 333 0.0 0.0 0.00 0.00 0.00 96 1016.5
20260502115027 5 333 0.0 0.0 0.00 0.00 0.00 95 1016.5
20260502114525 5 333 0.0 0.0 0.00 0.00 0.00 95 1016.5
20260502114024 5 333 0.0 0.0 0.00 0.00 0.00 95 1016.5
20260502113524 4 333 0.0 0.0 0.00 0.00 0.00 95 1016.6
20260502113024 4 333 0.0 0.0 0.00 0.00 0.00 95 1016.6
20260502112523 4 333 0.0 0.0 0.00 0.00 0.00 95 1016.5
20260502112024 4 333 0.0 0.0 0.00 0.00 0.00 95 1016.4
20260502111523 4 333 0.0 0.0 0.00 0.00 0.00 95 1016.4
20260502111021 4 333 0.0 0.0 0.00 0.00 0.00 95 1016.4
20260502110520 3 333 0.0 0.0 0.00 0.00 0.00 95 1016.2
20260502110021 3 333 0.0 0.0 0.00 0.00 0.00 95 1016.3
20260502105522 3 333 0.0 0.0 0.00 0.00 0.00 95 1016.3
20260502105018 3 333 0.0 0.0 0.00 0.00 0.00 95 1016.3
20260502104517 3 333 0.0 0.0 0.00 0.00 0.00 95 1016.2
20260502104017 3 333 0.0 0.0 0.00 0.00 0.00 95 1016.2
20260502103520 3 333 0.0 0.0 0.00 0.00 0.00 95 1016.1
20260502103017 3 333 0.0 0.0 0.00 0.00 0.00 95 1016.3
20260502102618 3 333 0.0 0.0 0.00 0.00 0.00 95 1016.4
20260502102016 3 333 0.0 0.0 0.00 0.00 0.00 95 1016.5
20260502101516 3 333 0.0 0.0 0.00 0.00 0.00 95 1016.5
20260502101015 3 333 0.0 0.0 0.00 0.00 0.00 95 1016.6
20260502100515 3 333 0.0 0.0 0.00 0.00 0.00 94 1016.5
20260502091515 4 333 0.0 0.0 0.00 0.00 0.00 94 1016.5
20260502091015 4 333 0.0 0.0 0.00 0.00 0.00 94 1016.4
20260502090513 4 333 0.0 0.0 0.00 0.00 0.00 94 1016.5
20260502071510 3 333 0.0 0.0 0.00 0.00 0.00 93 1016.0
20260502071009 3 333 0.0 0.0 0.00 0.00 0.00 93 1016.1
20260502070509 3 333 0.0 0.0 0.00 0.00 0.00 93 1016.2
20260502070008 3 333 0.0 0.0 0.00 0.00 0.00 93 1016.3
20260502065509 3 333 0.0 0.0 0.00 0.00 0.00 93 1016.4
20260502065007 3 333 0.0 0.0 0.00 0.00 0.00 93 1016.4
20260502064507 3 333 0.0 0.0 0.00 0.00 0.00 93 1016.4
20260502064012 3 333 0.0 0.0 0.00 0.00 0.00 93 1016.3
20260502063507 3 333 0.0 0.0 0.00 0.00 0.00 93 1016.3
20260502063007 3 333 0.0 0.0 0.00 0.00 0.00 93 1016.4
20260502062510 3 333 0.0 0.0 0.00 0.00 0.00 93 1016.6
20260502062006 3 333 0.0 0.0 0.00 0.00 0.00 93 1016.6
20260502061505 3 333 0.0 0.0 0.00 0.00 0.00 93 1016.6
20260502061004 3 333 0.0 0.0 0.00 0.00 0.00 93 1016.6
20260502060505 3 333 0.0 0.0 0.00 0.00 0.00 93 1016.8
20260502060003 3 333 0.0 0.0 0.00 0.00 0.00 92 1016.9
20260502055502 3 333 0.0 0.0 0.00 0.00 0.00 92 1016.9
20260502055003 3 333 0.0 0.0 0.00 0.00 0.00 92 1016.8
20260502054502 3 333 0.0 0.0 0.00 0.00 0.00 92 1016.8
20260502054005 3 333 0.0 0.0 0.00 0.00 0.00 92 1017.0
20260502053502 3 333 0.0 0.0 0.00 0.00 0.00 92 1017.0
20260502053001 3 333 0.0 0.0 0.00 0.00 0.00 92 1017.1
20260502052601 3 333 0.0 0.0 0.00 0.00 0.00 92 1017.0
20260502052102 3 333 0.0 0.0 0.00 0.00 0.00 91 1016.9
20260502051602 3 333 0.0 0.0 0.00 0.00 0.00 91 1016.9
20260502051058 3 333 0.0 0.0 0.00 0.00 0.00 91 1016.8
20260502050557 3 333 0.0 0.0 0.00 0.00 0.00 91 1016.9
20260502050101 4 333 0.0 0.0 0.00 0.00 0.00 91 1016.9
20260502045556 4 333 0.0 0.0 0.00 0.00 0.00 91 1016.9
20260502045056 4 333 0.0 0.0 0.00 0.00 0.00 91 1016.9
20260502044556 4 333 0.0 0.0 0.00 0.00 0.00 90 1016.9
20260502044055 4 333 0.0 0.0 0.00 0.00 0.00 90 1016.9
20260502043559 4 333 0.0 0.0 0.00 0.00 0.00 90 1016.9
20260502043101 4 333 0.0 0.0 0.00 0.00 0.00 89 1017.1
20260502042553 4 333 0.0 0.0 0.00 0.00 0.00 89 1017.1
20260502042056 4 333 0.0 0.0 0.00 0.00 0.00 89 1017.1
20260502041555 5 333 0.0 0.0 0.00 0.00 0.00 88 1017.1
20260502041049 5 333 0.0 0.0 0.00 0.00 0.00 88 1017.0
20260502040548 5 333 0.0 0.0 0.00 0.00 0.00 88 1017.0
20260502040051 5 333 0.0 0.0 0.00 0.00 0.00 88 1016.9
20260502035548 5 333 0.0 0.0 0.00 0.00 0.00 88 1016.9
20260502035048 5 333 0.0 0.0 0.00 0.00 0.00 88 1016.9
20260502034547 5 333 0.0 0.0 0.00 0.00 0.00 87 1016.7
20260502034047 5 333 0.0 0.0 0.00 0.00 0.00 87 1016.7
20260502033548 5 333 0.0 0.0 0.00 0.00 0.00 87 1016.8
20260502033047 5 333 0.0 0.0 0.00 0.00 0.00 86 1016.7
20260502032547 6 333 0.0 0.0 0.00 0.00 0.00 85 1016.8
20260502032047 6 333 0.0 0.0 0.00 0.00 0.00 85 1016.6
20260502031549 6 333 0.0 0.0 0.00 0.00 0.00 85 1016.6
20260502031046 6 333 0.0 0.0 0.00 0.00 0.00 84 1016.6
20260502030546 6 333 0.0 0.0 0.00 0.00 0.00 84 1016.8
20260502030045 6 333 0.0 0.0 0.00 0.00 0.00 84 1016.7
20260502025545 6 333 0.0 0.0 0.00 0.00 0.00 83 1016.7
20260502025045 6 333 0.0 0.0 0.00 0.00 0.00 82 1016.8
20260502024558 6 333 0.0 0.0 0.00 0.00 0.00 82 1016.9
20260502024045 6 333 0.0 0.0 0.00 0.00 0.00 81 1016.9
20260502023545 7 333 0.0 0.0 0.00 0.00 0.00 81 1016.8
20260502023045 7 333 0.0 0.0 0.00 0.00 0.00 80 1016.9
20260502022544 7 333 0.0 0.0 0.00 0.00 0.00 80 1016.8
20260502022043 7 333 0.0 0.0 0.00 0.00 0.00 78 1016.6
20260502021546 7 333 0.0 0.0 0.00 0.00 0.00 77 1016.3
20260502021042 8 333 0.0 0.0 0.00 0.00 0.00 75 1016.2
20260502020641 8 333 0.0 0.0 0.00 0.00 0.00 75 1016.2
20260502020041 8 333 0.0 0.0 0.00 0.00 0.00 74 1016.2
20260502015544 8 333 0.0 0.0 0.00 0.00 0.00 73 1015.9
20260502015043 8 333 0.0 0.0 0.00 0.00 0.00 72 1016.0
20260502014539 9 333 0.0 0.0 0.00 0.00 0.00 70 1016.0
20260502014038 9 333 0.0 0.0 0.00 0.00 0.00 69 1015.8
20260502013538 9 333 0.0 8.0 0.00 0.00 0.00 68 1015.8
20260502013040 10 333 0.0 8.0 0.00 0.00 0.00 67 1015.7
20260502012538 10 331 1.6 12.9 0.00 0.00 0.00 67 1015.7
20260502012038 10 360 0.0 12.9 0.00 0.00 0.00 66 1015.5
20260502011538 10 327 0.0 8.0 0.00 0.00 0.00 65 1015.4
20260502011036 10 327 1.6 8.0 0.00 0.00 0.00 65 1015.4
20260502010536 10 321 3.2 19.3 0.00 0.00 0.00 64 1015.3
20260502010036 11 320 4.8 19.3 0.00 0.00 0.00 63 1015.2
20260502005536 11 272 3.2 19.3 0.00 0.00 0.00 64 1015.1
20260502005036 11 340 6.4 20.9 0.00 0.00 0.00 64 1015.0
20260502004536 11 15 3.2 20.9 0.00 0.00 0.00 65 1014.8
20260502004039 11 308 11.3 20.9 0.00 0.00 0.00 64 1014.8
20260502003535 11 278 4.8 20.9 0.00 0.00 0.00 63 1014.4
20260502003035 12 294 9.7 20.9 0.00 0.00 0.00 63 1014.3
20260502002536 12 333 9.7 19.3 0.00 0.00 0.00 64 1014.3
20260502002035 12 323 6.4 20.9 0.00 0.00 0.00 65 1014.3
20260502001536 12 348 9.7 20.9 0.00 0.00 0.00 65 1014.1
20260502001034 12 300 3.2 17.7 0.00 0.00 0.00 65 1014.0
20260502000536 12 302 8.0 17.7 0.00 0.00 0.00 64 1013.8
20260502000039 12 306 4.8 17.7 0.00 0.00 0.00 63 1013.6
20260501235533 12 323 8.0 16.1 0.00 0.00 0.00 63 1013.6
20260501235033 12 311 4.8 20.9 0.00 0.00 0.00 62 1013.6
20260501234534 12 285 6.4 24.1 0.00 0.00 0.00 62 1013.3
20260501234035 12 336 6.4 24.1 0.00 0.00 0.00 63 1013.1
20260501233533 12 286 1.6 14.5 0.00 0.00 0.00 63 1012.9
20260501233033 12 313 3.2 14.5 0.00 0.00 0.00 63 1012.8
20260501232536 13 273 0.0 12.9 0.00 0.00 0.00 62 1012.8
20260501232032 13 273 3.2 14.5 0.00 0.00 0.00 61 1012.7
20260501231533 13 296 6.4 14.5 0.00 0.00 0.00 61 1012.8
20260501231033 13 322 4.8 14.5 0.00 0.00 0.00 60 1012.9
20260501230533 13 281 6.4 20.9 0.00 0.00 0.00 60 1012.8
20260501230036 13 318 11.3 20.9 0.00 0.00 0.00 60 1012.7
20260501225531 13 313 6.4 17.7 0.00 0.00 0.00 62 1012.6
20260501225032 13 307 1.6 14.5 0.00 0.00 0.00 63 1012.7
20260501224533 13 315 6.4 14.5 0.00 0.00 0.00 63 1012.8
20260501224031 13 305 0.0 12.9 0.00 0.00 0.00 66 1012.7
20260501223632 13 296 0.0 12.9 0.00 0.00 0.00 65 1012.7
20260501223033 13 329 3.2 16.1 0.00 0.00 0.00 66 1012.7
20260501222531 13 351 4.8 16.1 0.00 0.00 0.00 66 1012.7
20260501222032 13 296 4.8 14.5 0.00 0.00 0.00 67 1012.6
20260501221534 13 346 1.6 9.7 0.00 0.00 0.00 68 1012.7
20260501221030 12 360 3.2 9.7 0.00 0.00 0.00 67 1012.7
20260501220530 12 328 0.0 8.0 0.00 0.00 0.00 68 1012.5
20260501220031 13 328 0.0 8.0 0.00 0.00 0.00 68 1012.6
20260501215530 12 317 0.0 4.8 0.00 0.00 0.00 69 1012.5
20260501215030 12 317 1.6 4.8 0.00 0.00 0.00 70 1012.6
20260501214529 12 317 0.0 9.7 0.00 0.00 0.00 69 1012.7
20260501214030 13 317 4.8 9.7 0.00 0.00 0.00 66 1012.6
20260501213529 13 302 1.6 9.7 0.00 0.00 0.00 65 1012.7
20260501213029 13 302 0.0 8.0 0.00 0.00 0.00 65 1012.4
20260501212529 13 251 0.0 12.9 0.00 0.00 0.00 62 1012.4
20260501212029 13 292 3.2 14.5 0.00 0.00 0.00 62 1012.3
20260501211536 13 317 3.2 17.7 0.00 0.00 0.00 63 1012.5
20260501211028 13 327 8.0 17.7 0.00 0.00 0.00 62 1012.5
20260501210528 14 334 6.4 16.1 0.00 0.00 0.00 62 1012.2
20260501210028 14 306 4.8 20.9 0.00 0.00 0.00 63 1012.3
20260501205528 14 314 6.4 20.9 0.00 0.00 0.00 63 1012.2
20260501205028 15 298 1.6 19.3 0.00 0.00 0.00 64 1012.2
20260501204539 14 278 8.0 19.3 0.00 0.00 0.00 68 1012.2
20260501204027 14 300 6.4 25.7 0.00 0.00 0.00 67 1012.2
20260501203527 14 310 9.7 25.7 0.00 0.00 0.00 67 1012.2
20260501203027 14 286 9.7 22.5 0.00 0.00 0.00 63 1012.2
20260501202527 15 265 9.7 20.9 0.00 0.00 0.00 62 1012.2
20260501202029 15 331 8.0 19.3 0.00 0.00 0.00 62 1011.9
20260501201527 15 293 6.4 19.3 0.00 0.00 0.00 63 1011.8
20260501201026 15 313 4.8 19.3 0.00 0.00 0.00 63 1011.8
20260501200525 15 325 6.4 19.3 0.00 0.00 0.00 60 1011.8
20260501200027 15 294 3.2 12.9 0.00 0.00 0.00 60 1011.5
20260501195525 15 317 1.6 8.0 0.00 0.00 0.00 59 1011.5